Location: ??????
(56.0120°N, 39.1740°E)
Time: 08:08:06
(UTC+00:00)

Cosmos 1603 - Pass Details

Date: 14 April 2026
Orbit: 828 x 860 km, 71.0° (Epoch: 14 May)

Event Time Altitude Azimuth Distance (km) Brightness Sun altitude
Exits shadow 22:23:23 40° 247° (WSW) 1,221 4.2 -23.1°
Maximum altitude 22:25:18 63° 310° (NW) 942 4.0 -23.1°
Drops below altitude 10° 22:30:59 10° 32° (NNE) 2,487 7.2 -22.8°
Sets 22:33:29 0° 36° (NE) 3,431 8.1 -22.7°
